Regional Weather Roundup
Issued by NWS

Home | Current Version | Previous Version | Text Only | Print | Product List | Glossary Off
Versions: 1 2 3 4 5 6 7 8 9 10 11 12 13 14 15 16 17 18 19 20 21 22 23 24 25 26 27 28 29 30 31 32 33 34 35 36 37 38 39 40 41 42 43 44 45 46 47 48 49 50

000
ASUS43 KIND 200709
RWRIN

WEATHER ROUNDUP FOR INDIANA
NATIONAL WEATHER SERVICE INDIANAPOLIS IN
300 AM EDT MON OCT 20 2014

NOTE: "FAIR" INDICATES FEW OR NO CLOUDS BELOW 12,000 FEET WITH NO
SIGNIFICANT WEATHER AND/OR OBSTRUCTIONS TO VISIBILITY.

* - STATION DOES NOT REPORT WEATHER SUCH AS PRECIPITATION OR FOG.

+ - STATION NOT QUALITY CONTROLLED BY THE NATIONAL WEATHER SERVICE.
    USE DATA WITH CAUTION...ESPECIALLY DEWPOINT AND RELATIVE
    HUMIDITY OBSERVATIONS.

INZ001>003-010>013-019-020-200800-
NORTHWEST INDIANA

CITY           SKY/WX    TMP DP  RH WIND       PRES   REMARKS
GARY /AIRPORT/ CLOUDY    51  44  76 S7        29.90F
KNOX *+        CLOUDY    48  42  77 SW7       29.93F
LA PORTE +     CLOUDY    49  45  85 SW7       29.92F
MICHIGAN CITY+ CLOUDY    48  41  76 S10       29.91F
MONTICELLO +   CLOUDY    47  44  87 SW7       29.96F
RENSSELAER +   FAIR      46  45  93 S8        29.94F
VALPARAISO     MOCLDY    48  42  80 S10       29.92F

$$

LMZ046-743>745-200800-
SOUTHERN LAKE MICHIGAN

STATION/POSITION TIME  TEMP WIND        PRES
                       AIR  DIR/SP/G
                 (UTC) (F)  (DEG/KT/KT) (MB)
MICHIGAN CITY    0700   50  160/ 16/ 19   N/A

$$

INZ004-005-014>016-021>024-200800-
NORTH CENTRAL INDIANA

CITY           SKY/WX    TMP DP  RH WIND       PRES   REMARKS
GOSHEN         FAIR      48  42  80 SW13      29.93F
LOGANSPORT +   CLOUDY    46  41  81 SW8       29.97F
PERU/GRISSOM   MOCLDY    47  46  97 SW10      29.96F
ROCHESTER +    MOCLDY    50  43  76 SW7       29.95F
SOUTH BEND     CLOUDY    49  43  80 SW14      29.92F
WARSAW +       CLOUDY    46  41  81 SW5       29.94F

$$

INZ006>009-017-018-025>027-200800-
NORTHEAST INDIANA

CITY           SKY/WX    TMP DP  RH WIND       PRES   REMARKS
ANGOLA *+      CLEAR     45  36  70 SW6       29.94S
AUBURN +       FAIR      46  39  76 SW6       29.97F
FORT WAYNE     MOCLDY    47  42  83 SW8       29.98F
HUNTINGTON +   FAIR      47  42  84 SW6       29.97F

$$

INZ028-029-035-036-043>045-051>053-200800-
WEST CENTRAL INDIANA

CITY           SKY/WX    TMP DP  RH WIND       PRES   REMARKS
GREENCASTLE +  CLOUDY    46  43  87 S5        30.01F
LAFAYETTE      MOCLDY    48  43  82 SW5       29.97F
TERRE HAUTE    MOCLDY    48  43  82 S5        30.02F

$$

INZ030>032-037>040-046>048-054>057-064-065-200800-
CENTRAL INDIANA

CITY           SKY/WX    TMP DP  RH WIND       PRES   REMARKS
CP ATTERBURY + FAIR      43  41  93 CALM      30.03F
FRANKFORT +    FAIR      47  43  84 S6        30.00F
INDIANAPOLIS   CLOUDY    47  42  83 SW7       30.01F
-EAGLE CREEK   CLOUDY    48  42  80 SW3       30.00F
KOKOMO *+      FAIR      48  39  71 SW9       29.98F
MARION +       FAIR      46  40  80 SW7       29.99F
MT COMFORT *+  FAIR      46  39  76 S5        30.02F
SHELBYVILLE    FAIR      47  41  80 S7        30.02F
ZIONSVILLE +   MOCLDY    48  41  77 S5        30.00F

$$

INZ033-034-041-042-049-050-058-059-200800-
EAST CENTRAL INDIANA

CITY           SKY/WX    TMP DP  RH WIND       PRES   REMARKS
MUNCIE         MOCLDY    48  41  76 SW7       30.00F

$$

INZ060-061-067>069-081>083-085>088-200800-
SOUTHWEST INDIANA

CITY           SKY/WX    TMP DP  RH WIND       PRES   REMARKS
EVANSVILLE     FAIR      46  43  89 CALM      30.06F
HUNTINGBURG *+ FAIR      45  41  87 S5        30.05F
WASHINGTON +   MOCLDY    48  45  88 S7        30.03F

$$

INZ062-063-066-070>080-084-089>092-200800-
SOUTH CENTRAL AND SOUTHEAST INDIANA

CITY           SKY/WX    TMP DP  RH WIND       PRES   REMARKS
BLOOMINGTON    MOCLDY    48  43  82 SW5       30.02F
NORTH VERNON + FAIR      46  46 100 S3        30.05F

$$




USA.gov is the U.S. government's official web portal to all federal, state and local government web resources and services.